Regional Weather Roundup
Issued by NWS

Home | Current Version | Previous Version | Text Only | Print | Product List | Glossary Off
Versions: 1 2 3 4 5 6 7 8 9 10 11 12 13 14 15 16 17 18 19 20 21 22 23 24 25 26 27 28 29 30 31 32 33 34 35 36 37 38 39 40 41 42 43 44 45 46 47 48 49 50

000
ASUS43 KFSD 290002
RWRSD

WEATHER ROUNDUP FOR SOUTH DAKOTA
NATIONAL WEATHER SERVICE SIOUX FALLS SD
700 PM CDT THU MAY 28 2015

NOTE: "FAIR" INDICATES FEW OR NO CLOUDS BELOW 12,000 FEET WITH NO
SIGNIFICANT WEATHER AND/OR OBSTRUCTIONS TO VISIBILITY.


SDZ001>005-009-010-012>017-290100-
NORTHWEST AND NORTH CENTRAL SOUTH DAKOTA

CITY           SKY/WX    TMP DP  RH WIND       PRES   REMARKS
BUFFALO          N/A     61  51  70 NW13G21   29.88R
FAITH            N/A     65  56  72 NW10      29.88S
MOBRIDGE       CLOUDY    74  62  66 N7        29.79R
$$

SDZ012>016-024>037-041>051-057-063-072>074-290100-
SOUTHWEST AND SOUTH CENTRAL SOUTH DAKOTA

CITY           SKY/WX    TMP DP  RH WIND       PRES   REMARKS
RAPID CTY ARPT RAIN      57  54  89 N9        29.94F
PIERRE         CLOUDY    69  62  78 W16       29.78F
CUSTER         CLOUDY    56  47  71 N8        30.02S
PHILIP         CLOUDY    64  55  72 N20G26    29.86R THUNDER
PINE RIDGE     CLOUDY    70  55  59 CALM      29.90R
WINNER         FAIR      70  61  73 CALM      29.86R
$$

SDZ004>011-016>023-039-040-290100-
NORTHEAST SOUTH DAKOTA

CITY           SKY/WX    TMP DP  RH WIND       PRES   REMARKS
ABERDEEN       PTSUNNY   82  58  43 S21G29    29.74F
WATERTOWN      PTSUNNY   78  59  51 S15G25    29.81F
BROOKINGS      PTSUNNY   77  57  50 S21G26    29.85S
SISSETON         N/A     82  59  45 S16G26    29.75F
$$

SDZ017-020-022-023-036>040-048>070-290100-
SOUTHEAST SOUTH DAKOTA

CITY           SKY/WX    TMP DP  RH WIND       PRES   REMARKS
SIOUX FALLS    PTSUNNY   74  54  49 S20G28    29.85F
HURON            N/A    N/A N/A N/A MISG      29.77F
CHAMBERLAIN    LGT RAIN  67  64  89 CALM      29.82F
MITCHELL       PTSUNNY   81  59  47 S20G26    29.80F
YANKTON        PTSUNNY   75  61  60 S15G21    29.83S
$$

ABBREVIATIONS USED IN REMARKS
   TC - TEMPERATURE IN CELSIUS
  WCI - WIND CHILL INDEX
   HX - HEAT INDEX
  VSB - VISIBILITY



USA.gov is the U.S. government's official web portal to all federal, state and local government web resources and services.